Belleville, IL

6:58 PM CDT on September 15, 2019 (GMT -0500)
Scott Air Force Base-Midamerica

Weather History for KBLV - August, 2019

Change the Weather History Date:

Sunday, August 25, 2019

  Actual Average Record
Temperature  
Mean Temperature 68 °F -  
Max Temperature 72 °F 87 °F 97 °F (1954)
Min Temperature 64 °F 61 °F 50 °F (1966)
Cooling Degree Days 2    
Growing Degree Days 18 (Base 50)    
Moisture  
Dew Point 66 °F    
Average Humidity 93    
Maximum Humidity 100    
Minimum Humidity 73    
Precipitation  
Precipitation 0.74 in - - ()
Sea Level Pressure  
Sea Level Pressure 29.95 in    
Wind  
Wind Speed 3 mph ()    
Max Wind Speed 13 mph    
Max Gust Speed -    
Visibility 8.8 miles    
Events Rain    
Averages and records for this station are not official NWS values.
T = Trace of Precipitation, MM = Missing Value Source: Averaged Metar Reports

Daily Weather History Graph

Daily Weather History Graph

Search for Another Location

Airport or City:

Astronomy

Aug. 25, 2019 Rise Set
Actual Time 6:22 AM CDT 7:39 PM CDT
Civil Twilight 5:54 AM CDT 8:07 PM CDT
Nautical Twilight 5:21 AM CDT 8:40 PM CDT
Astronomical Twilight 4:46 AM CDT 9:14 PM CDT
Moon 12:59 AM CDT (8/25) 3:58 PM CDT (8/25)
Length of Visible Light 14h 12m
Length of Day
13h 17m
Waning Crescent, 29% of the Moon is Illuminated
Aug 25
Waning Crescent
Aug 30
New
Sep 5
First Quarter
Sep 13
Full
Sep 21
Last Quarter

Hourly Weather History & Observations

Time (CDT) Temp. Dew Point Humidity Pressure Visibility Wind Dir Wind Speed Gust Speed Precip Events Conditions
12:56 AM 66.2 °F 61.5 °F 85% 30.06 in 10.0 mi Calm Calm - N/A   Overcast
2:56 AM 66.0 °F 60.1 °F 81% 30.03 in 10.0 mi ENE 3.5 mph - N/A   Overcast
3:56 AM 65.5 °F 59.9 °F 82% 30.01 in 10.0 mi East 4.6 mph - N/A   Mostly Cloudy
4:56 AM 65.3 °F 60.3 °F 84% 30.01 in 10.0 mi Calm Calm - N/A   Mostly Cloudy
5:56 AM 64.9 °F 60.6 °F 86% 30.01 in 10.0 mi Calm Calm - N/A   Mostly Cloudy
6:17 AM 64.4 °F 60.8 °F 88% 30.01 in 10.0 mi East 3.5 mph - N/A   Light Drizzle
6:26 AM 64.4 °F 60.8 °F 88% 30.01 in 10.0 mi East 3.5 mph - N/A   Mostly Cloudy
6:56 AM 64.9 °F 60.6 °F 86% 30.01 in 10.0 mi East 3.5 mph - 0.00 in   Mostly Cloudy
7:56 AM 65.7 °F 60.6 °F 84% 30.01 in 10.0 mi ENE 5.8 mph - N/A   Mostly Cloudy
8:56 AM 66.9 °F 60.8 °F 81% 30.01 in 10.0 mi ENE 4.6 mph - N/A   Partly Cloudy
9:56 AM 70.5 °F 61.3 °F 73% 30.01 in 10.0 mi East 6.9 mph - N/A   Mostly Cloudy
10:56 AM 70.9 °F 62.6 °F 75% 30.00 in 10.0 mi East 6.9 mph - N/A   Scattered Clouds
11:56 AM 68.0 °F 65.3 °F 91% 29.99 in 4.0 mi Calm Calm - 0.08 in Rain Rain
12:27 PM 68.0 °F 66.2 °F 94% 29.99 in 4.0 mi Calm Calm - N/A Rain Rain
12:52 PM 68.0 °F 66.2 °F 94% 29.99 in 1.1 mi ENE 3.5 mph - N/A Rain Heavy Rain
1:03 PM 67.1 °F 66.6 °F 98% 29.98 in 4.0 mi ENE 4.6 mph - 0.46 in Rain Rain
1:23 PM 68.0 °F 66.2 °F 94% 29.98 in 7.0 mi East 3.5 mph - N/A   Light Drizzle
1:56 PM 68.0 °F 67.6 °F 99% 29.96 in 9.0 mi ENE 3.5 mph - 0.13 in Rain Heavy Rain
2:02 PM 68.0 °F 68.0 °F 100% 29.96 in 4.0 mi ENE 4.6 mph - N/A Rain Rain
2:24 PM 68.0 °F 68.0 °F 100% 29.96 in 4.0 mi ENE 5.8 mph - N/A Rain Light Rain
2:36 PM 68.0 °F 68.0 °F 100% 29.96 in 8.0 mi ENE 3.5 mph - N/A   Light Drizzle
2:54 PM 68.0 °F 68.0 °F 100% 29.95 in 7.0 mi East 9.2 mph - N/A   Overcast
2:56 PM 68.5 °F 68.2 °F 99% 29.94 in 8.0 mi ENE 12.7 mph - 0.17 in   Overcast
3:06 PM 68.0 °F 68.0 °F 100% 29.94 in 10.0 mi East 9.2 mph - N/A   Overcast
3:36 PM 68.0 °F 68.0 °F 100% 29.93 in 10.0 mi East 8.1 mph - N/A Rain Rain
3:47 PM 68.0 °F 68.0 °F 100% 29.93 in 10.0 mi East 6.9 mph - N/A   Overcast
4:56 PM 70.2 °F 68.5 °F 95% 29.91 in 10.0 mi East 5.8 mph - N/A   Overcast
5:56 PM 71.1 °F 69.8 °F 96% 29.88 in 10.0 mi East 5.8 mph - N/A   Overcast
6:46 PM 71.6 °F 69.8 °F 94% 29.88 in 10.0 mi East 5.8 mph - N/A   Light Drizzle
6:56 PM 71.4 °F 70.2 °F 96% 29.88 in 10.0 mi Calm Calm - 0.01 in   Light Drizzle
7:39 PM 71.6 °F 69.8 °F 94% 29.88 in 10.0 mi Calm Calm - N/A   Overcast
7:54 PM 71.6 °F 69.8 °F 94% 29.88 in 10.0 mi Calm Calm - N/A   Overcast
7:56 PM 71.2 °F 70.3 °F 97% 29.88 in 10.0 mi ENE 3.5 mph - 0.00 in   Overcast
8:01 PM 71.6 °F 69.8 °F 94% 29.88 in 10.0 mi Calm Calm - N/A   Overcast
8:06 PM 71.6 °F 69.8 °F 94% 29.88 in 10.0 mi Calm Calm - N/A   Overcast
8:56 PM 71.2 °F 70.5 °F 98% 29.87 in 10.0 mi East 3.5 mph - N/A   Overcast
9:01 PM 71.6 °F 69.8 °F 94% 29.87 in 10.0 mi Calm Calm - N/A Rain Light Rain
9:53 PM 71.6 °F 71.6 °F 100% 29.87 in 10.0 mi Calm Calm - N/A   Scattered Clouds
9:56 PM 71.4 °F 71.1 °F 99% 29.87 in 10.0 mi Calm Calm - 0.02 in   Scattered Clouds
10:56 PM 71.6 °F 70.9 °F 98% 29.85 in 10.0 mi ESE 5.8 mph - N/A   Mostly Cloudy
11:56 PM 71.1 °F 71.1 °F 100% 29.84 in 10.0 mi SE 5.8 mph - N/A   Mostly Cloudy